7 * 24
多渠道服务支持
STARLINK-34374是美国SpaceX公司星链(Starlink)卫星互联网项目中的一颗低地球轨道通信卫星,于2025年6月8日由美国发射入轨。 作为星链星座扩容的组成部分,该卫星继承了星链二代技术,配备相控阵天线与激光星间链路,可提供高速低延迟宽带服务,助力完善全球互联网覆盖,尤其服务偏远地区与特殊场景通信需求。星链庞大的星座规模也引发了太空碎片和天文观测的相关争议。
美国
(US)
| 数据来源 | 国际轨道数据 |
| 星历时间: | 2026-03-14T08:15:19+0800 16小时前 查看轨道信息 |
| 半长轴: | 6950.196km |
| 偏心率: | 0.0004589 |
| 轨道倾角: | 70.001° |
| 近地点辐角 | 270.714° |
| 升交点赤经 | 183.640° |
| 平近点角 | 89.349° |
| 近地点: | 568.869km |
| 远地点: | 575.249km |
| 周期: | 96.107分钟 |
| 每日圈数: | 14.983292 |